Year,Month,Day,Hour,Minute,Value (Times are PST for temperature in C)
2015,01,29,00,00,3.80
2015,01,29,00,01,3.80
2015,01,29,00,02,3.80
2015,01,29,00,03,3.80
2015,01,29,00,04,3.80
2015,01,29,00,05,3.80
2015,01,29,00,06,3.80
2015,01,29,00,07,3.80
2015,01,29,00,08,3.70
2015,01,29,00,09,3.70
2015,01,29,00,10,3.70
2015,01,29,00,11,3.70
2015,01,29,00,12,3.70
2015,01,29,00,13,3.70
2015,01,29,00,14,3.70
2015,01,29,00,15,3.60
2015,01,29,00,16,3.60
2015,01,29,00,17,3.60
2015,01,29,00,18,3.60
2015,01,29,00,19,3.50
2015,01,29,00,20,3.50
2015,01,29,00,21,3.50
2015,01,29,00,22,3.40
2015,01,29,00,23,3.40
2015,01,29,00,24,3.40
2015,01,29,00,25,3.40
2015,01,29,00,26,3.40
2015,01,29,00,27,3.40
2015,01,29,00,28,3.30
2015,01,29,00,29,3.30
2015,01,29,00,30,3.30
2015,01,29,00,31,3.30
2015,01,29,00,32,3.30
2015,01,29,00,33,3.30
2015,01,29,00,34,3.30
2015,01,29,00,35,3.30
2015,01,29,00,36,3.30
2015,01,29,00,37,3.30
2015,01,29,00,38,3.30
2015,01,29,00,39,3.30
2015,01,29,00,40,3.30
2015,01,29,00,41,3.20
2015,01,29,00,42,3.20
2015,01,29,00,43,3.20
2015,01,29,00,44,3.20
2015,01,29,00,45,3.20
2015,01,29,00,46,3.20
2015,01,29,00,47,3.10
2015,01,29,00,48,3.10
2015,01,29,00,49,3.00
2015,01,29,00,50,3.10
2015,01,29,00,51,3.10
2015,01,29,00,52,3.10
2015,01,29,00,53,3.10
2015,01,29,00,54,3.10
2015,01,29,00,55,3.10
2015,01,29,00,56,3.10
2015,01,29,00,57,3.10
2015,01,29,00,58,3.00
2015,01,29,00,59,3.00
2015,01,29,01,00,3.00
2015,01,29,01,01,3.00
2015,01,29,01,02,3.10
2015,01,29,01,03,3.10
2015,01,29,01,04,3.10
2015,01,29,01,05,3.10
2015,01,29,01,06,3.20
2015,01,29,01,07,3.20
2015,01,29,01,08,3.20
2015,01,29,01,09,3.20
2015,01,29,01,10,3.20
2015,01,29,01,11,3.20
2015,01,29,01,12,3.20
2015,01,29,01,13,3.20
2015,01,29,01,14,3.20
2015,01,29,01,15,3.20
2015,01,29,01,16,3.20
2015,01,29,01,17,3.20
2015,01,29,01,18,3.20
2015,01,29,01,19,3.20
2015,01,29,01,20,3.10
2015,01,29,01,21,3.10
2015,01,29,01,22,3.10
2015,01,29,01,23,3.00
2015,01,29,01,24,3.00
2015,01,29,01,25,3.00
2015,01,29,01,26,3.00
2015,01,29,01,27,3.00
2015,01,29,01,28,2.90
2015,01,29,01,29,2.90
2015,01,29,01,30,2.90
2015,01,29,01,31,2.90
2015,01,29,01,32,2.90
2015,01,29,01,33,2.90
2015,01,29,01,34,2.90
2015,01,29,01,35,2.90
2015,01,29,01,36,2.90
2015,01,29,01,37,2.90
2015,01,29,01,38,2.90
2015,01,29,01,39,2.90
2015,01,29,01,40,2.80
2015,01,29,01,41,2.80
2015,01,29,01,42,2.80
2015,01,29,01,43,2.80
2015,01,29,01,44,2.80
2015,01,29,01,45,2.80
2015,01,29,01,46,2.80
2015,01,29,01,47,2.70
2015,01,29,01,48,2.70
2015,01,29,01,49,2.70
2015,01,29,01,50,2.70
2015,01,29,01,51,2.70
2015,01,29,01,52,2.70
2015,01,29,01,53,2.70
2015,01,29,01,54,2.70
2015,01,29,01,55,2.70
2015,01,29,01,56,2.70
2015,01,29,01,57,2.70
2015,01,29,01,58,2.70
2015,01,29,01,59,2.70
2015,01,29,02,00,2.70
2015,01,29,02,01,2.70
2015,01,29,02,02,2.70
2015,01,29,02,03,2.70
2015,01,29,02,04,2.70
2015,01,29,02,05,2.70
2015,01,29,02,06,2.70
2015,01,29,02,07,2.70
2015,01,29,02,08,2.70
2015,01,29,02,09,2.70
2015,01,29,02,10,2.70
2015,01,29,02,11,2.70
2015,01,29,02,12,2.70
2015,01,29,02,13,2.70
2015,01,29,02,14,2.70
2015,01,29,02,15,2.70
2015,01,29,02,16,2.70
2015,01,29,02,17,2.70
2015,01,29,02,18,2.60
2015,01,29,02,19,2.70
2015,01,29,02,20,2.70
2015,01,29,02,21,2.70
2015,01,29,02,22,2.70
2015,01,29,02,23,2.70
2015,01,29,02,24,2.70
2015,01,29,02,25,2.70
2015,01,29,02,26,2.70
2015,01,29,02,27,2.70
2015,01,29,02,28,2.70
2015,01,29,02,29,2.70
2015,01,29,02,30,2.70
2015,01,29,02,31,2.70
2015,01,29,02,32,2.70
2015,01,29,02,33,2.70
2015,01,29,02,34,2.70
2015,01,29,02,35,2.80
2015,01,29,02,36,2.80
2015,01,29,02,37,2.80
2015,01,29,02,38,2.90
2015,01,29,02,39,2.90
2015,01,29,02,40,2.90
2015,01,29,02,41,2.90
2015,01,29,02,42,2.90
2015,01,29,02,43,2.90
2015,01,29,02,44,3.00
2015,01,29,02,45,3.00
2015,01,29,02,46,3.00
2015,01,29,02,47,3.00
2015,01,29,02,48,3.00
2015,01,29,02,49,3.00
2015,01,29,02,50,3.00
2015,01,29,02,51,3.00
2015,01,29,02,52,3.00
2015,01,29,02,53,3.00
2015,01,29,02,54,3.00
2015,01,29,02,55,3.00
2015,01,29,02,56,3.00
2015,01,29,02,57,3.10
2015,01,29,02,58,3.10
2015,01,29,02,59,3.00
2015,01,29,03,00,3.00
2015,01,29,03,01,3.00
2015,01,29,03,02,3.00
2015,01,29,03,03,3.00
2015,01,29,03,04,3.00
2015,01,29,03,05,3.00
2015,01,29,03,06,3.00
2015,01,29,03,07,3.00
2015,01,29,03,08,3.00
2015,01,29,03,09,3.00
2015,01,29,03,10,3.00
2015,01,29,03,11,3.00
2015,01,29,03,12,3.00
2015,01,29,03,13,3.10
2015,01,29,03,14,3.00
2015,01,29,03,15,3.10
2015,01,29,03,16,3.10
2015,01,29,03,17,3.10
2015,01,29,03,18,3.10
2015,01,29,03,19,3.10
2015,01,29,03,20,3.10
2015,01,29,03,21,3.10
2015,01,29,03,22,3.10
2015,01,29,03,23,3.10
2015,01,29,03,24,3.10
2015,01,29,03,25,3.10
2015,01,29,03,26,3.10
2015,01,29,03,27,3.10
2015,01,29,03,28,3.10
2015,01,29,03,29,3.10
2015,01,29,03,30,3.10
2015,01,29,03,31,3.10
2015,01,29,03,32,3.10
2015,01,29,03,33,3.10
2015,01,29,03,34,3.10
2015,01,29,03,35,3.10
2015,01,29,03,36,3.10
2015,01,29,03,37,3.10
2015,01,29,03,38,3.10
2015,01,29,03,39,3.00
2015,01,29,03,40,3.00
2015,01,29,03,41,3.00
2015,01,29,03,42,3.00
2015,01,29,03,43,3.00
2015,01,29,03,44,3.00
2015,01,29,03,45,3.00
2015,01,29,03,46,3.00
2015,01,29,03,47,3.00
2015,01,29,03,48,3.00
2015,01,29,03,49,2.90
2015,01,29,03,50,2.90
2015,01,29,03,51,2.90
2015,01,29,03,52,2.90
2015,01,29,03,53,2.90
2015,01,29,03,54,2.90
2015,01,29,03,55,2.80
2015,01,29,03,56,2.80
2015,01,29,03,57,2.80
2015,01,29,03,58,2.80
2015,01,29,03,59,2.80
2015,01,29,04,00,2.90
2015,01,29,04,01,2.90
2015,01,29,04,02,2.90
2015,01,29,04,03,2.90
2015,01,29,04,04,2.80
2015,01,29,04,05,2.80
2015,01,29,04,06,2.80
2015,01,29,04,07,2.80
2015,01,29,04,08,2.80
2015,01,29,04,09,2.70
2015,01,29,04,10,2.70
2015,01,29,04,11,2.70
2015,01,29,04,12,2.70
2015,01,29,04,13,2.70
2015,01,29,04,14,2.70
2015,01,29,04,15,2.70
2015,01,29,04,16,2.70
2015,01,29,04,17,2.70
2015,01,29,04,18,2.70
2015,01,29,04,19,2.70
2015,01,29,04,20,2.70
2015,01,29,04,21,2.70
2015,01,29,04,22,2.70
2015,01,29,04,23,2.70
2015,01,29,04,24,2.70
2015,01,29,04,25,2.70
2015,01,29,04,26,2.70
2015,01,29,04,27,2.70
2015,01,29,04,28,2.70
2015,01,29,04,29,2.70
2015,01,29,04,30,2.70
2015,01,29,04,31,2.70
2015,01,29,04,32,2.70
2015,01,29,04,33,2.60
2015,01,29,04,34,2.60
2015,01,29,04,35,2.60
2015,01,29,04,36,2.50
2015,01,29,04,37,2.50
2015,01,29,04,38,2.50
2015,01,29,04,39,2.50
2015,01,29,04,40,2.50
2015,01,29,04,41,2.50
2015,01,29,04,42,2.40
2015,01,29,04,43,2.40
2015,01,29,04,44,2.40
2015,01,29,04,45,2.40
2015,01,29,04,46,2.40
2015,01,29,04,47,2.40
2015,01,29,04,48,2.50
2015,01,29,04,49,2.50
2015,01,29,04,50,2.50
2015,01,29,04,51,2.50
2015,01,29,04,52,2.50
2015,01,29,04,53,2.50
2015,01,29,04,54,2.50
2015,01,29,04,55,2.50
2015,01,29,04,56,2.50
2015,01,29,04,57,2.50
2015,01,29,04,58,2.50
2015,01,29,04,59,2.50
2015,01,29,05,00,2.40
2015,01,29,05,01,2.50
2015,01,29,05,02,2.50
2015,01,29,05,03,2.50
2015,01,29,05,04,2.50
2015,01,29,05,05,2.50
2015,01,29,05,06,2.50
2015,01,29,05,07,2.50
2015,01,29,05,08,2.50
2015,01,29,05,09,2.40
2015,01,29,05,10,2.40
2015,01,29,05,11,2.40
2015,01,29,05,12,2.40
2015,01,29,05,13,2.30
2015,01,29,05,14,2.30
2015,01,29,05,15,2.30
2015,01,29,05,16,2.30
2015,01,29,05,17,2.30
2015,01,29,05,18,2.30
2015,01,29,05,19,2.30
2015,01,29,05,20,2.30
2015,01,29,05,21,2.30
2015,01,29,05,22,2.30
2015,01,29,05,23,2.30
2015,01,29,05,24,2.20
2015,01,29,05,25,2.20
2015,01,29,05,26,2.20
2015,01,29,05,27,2.20
2015,01,29,05,28,2.20
2015,01,29,05,29,2.20
2015,01,29,05,30,2.20
2015,01,29,05,31,2.20
2015,01,29,05,32,2.20
2015,01,29,05,33,2.20
2015,01,29,05,34,2.20
2015,01,29,05,35,2.20
2015,01,29,05,36,2.20
2015,01,29,05,37,2.20
2015,01,29,05,38,2.10
2015,01,29,05,39,2.10
2015,01,29,05,40,2.10
2015,01,29,05,41,2.10
2015,01,29,05,42,2.10
2015,01,29,05,43,2.10
2015,01,29,05,44,2.10
2015,01,29,05,45,2.10
2015,01,29,05,46,2.10
2015,01,29,05,47,2.10
2015,01,29,05,48,2.00
2015,01,29,05,49,2.00
2015,01,29,05,50,1.90
2015,01,29,05,51,1.90
2015,01,29,05,52,1.90
2015,01,29,05,53,1.90
2015,01,29,05,54,1.90
2015,01,29,05,55,2.00
2015,01,29,05,56,1.90
2015,01,29,05,57,2.00
2015,01,29,05,58,2.00
2015,01,29,05,59,2.00
2015,01,29,06,00,2.00
2015,01,29,06,01,2.00
2015,01,29,06,02,2.10
2015,01,29,06,03,2.10
2015,01,29,06,04,2.10
2015,01,29,06,05,2.10
2015,01,29,06,06,2.10
2015,01,29,06,07,2.10
2015,01,29,06,08,2.10
2015,01,29,06,09,2.10
2015,01,29,06,10,2.10
2015,01,29,06,11,2.10
2015,01,29,06,12,2.10
2015,01,29,06,13,2.10
2015,01,29,06,14,2.10
2015,01,29,06,15,2.10
2015,01,29,06,16,2.10
2015,01,29,06,17,2.10
2015,01,29,06,18,2.10
2015,01,29,06,19,2.10
2015,01,29,06,20,2.10
2015,01,29,06,21,2.10
2015,01,29,06,22,2.10
2015,01,29,06,23,2.10
2015,01,29,06,24,2.10
2015,01,29,06,25,2.10
2015,01,29,06,26,2.10
2015,01,29,06,27,2.10
2015,01,29,06,28,2.10
2015,01,29,06,29,2.10
2015,01,29,06,30,2.10
2015,01,29,06,31,2.20
2015,01,29,06,32,2.20
2015,01,29,06,33,2.20
2015,01,29,06,34,2.20
2015,01,29,06,35,2.20
2015,01,29,06,36,2.30
2015,01,29,06,37,2.30
2015,01,29,06,38,2.30
2015,01,29,06,39,2.40
2015,01,29,06,40,2.40
2015,01,29,06,41,2.40
2015,01,29,06,42,2.40
2015,01,29,06,43,2.40
2015,01,29,06,44,2.40
2015,01,29,06,45,2.40
2015,01,29,06,46,2.40
2015,01,29,06,47,2.40
2015,01,29,06,48,2.40
2015,01,29,06,49,2.40
2015,01,29,06,50,2.40
2015,01,29,06,51,2.40
2015,01,29,06,52,2.40
2015,01,29,06,53,2.40
2015,01,29,06,54,2.40
2015,01,29,06,55,2.40
2015,01,29,06,56,2.40
2015,01,29,06,57,2.40
2015,01,29,06,58,2.40
2015,01,29,06,59,2.40
2015,01,29,07,00,2.50
2015,01,29,07,01,2.60
2015,01,29,07,02,2.70
2015,01,29,07,03,2.70
2015,01,29,07,04,2.80
2015,01,29,07,05,2.80
2015,01,29,07,06,2.80
2015,01,29,07,07,2.80
2015,01,29,07,08,2.80
2015,01,29,07,09,2.80
2015,01,29,07,10,2.80
2015,01,29,07,11,2.80
2015,01,29,07,12,2.80
2015,01,29,07,13,2.80
2015,01,29,07,14,2.80
2015,01,29,07,15,2.80
2015,01,29,07,16,2.80
2015,01,29,07,17,2.80
2015,01,29,07,18,2.80
2015,01,29,07,19,2.90
2015,01,29,07,20,2.90
2015,01,29,07,21,2.90
2015,01,29,07,22,2.90
2015,01,29,07,23,2.90
2015,01,29,07,24,2.90
2015,01,29,07,25,2.90
2015,01,29,07,26,2.90
2015,01,29,07,27,2.90
2015,01,29,07,28,2.90
2015,01,29,07,29,2.90
2015,01,29,07,30,2.90
2015,01,29,07,31,2.90
2015,01,29,07,32,2.90
2015,01,29,07,33,2.90
2015,01,29,07,34,2.90
2015,01,29,07,35,2.90
2015,01,29,07,36,2.90
2015,01,29,07,37,2.90
2015,01,29,07,38,3.00
2015,01,29,07,39,3.00
2015,01,29,07,40,3.00
2015,01,29,07,41,3.00
2015,01,29,07,42,3.00
2015,01,29,07,43,3.00
2015,01,29,07,44,3.00
2015,01,29,07,45,3.10
2015,01,29,07,46,3.10
2015,01,29,07,47,3.10
2015,01,29,07,48,3.10
2015,01,29,07,49,3.10
2015,01,29,07,50,3.00
2015,01,29,07,51,3.00
2015,01,29,07,52,3.00
2015,01,29,07,53,3.00
2015,01,29,07,54,3.00
2015,01,29,07,55,3.00
2015,01,29,07,56,3.00
2015,01,29,07,57,3.00
2015,01,29,07,58,3.10
2015,01,29,07,59,3.10
2015,01,29,08,00,3.10
2015,01,29,08,01,3.20
2015,01,29,08,02,3.20
2015,01,29,08,03,3.20
2015,01,29,08,04,3.20
2015,01,29,08,05,3.20
2015,01,29,08,06,3.20
2015,01,29,08,07,3.30
2015,01,29,08,08,3.30
2015,01,29,08,09,3.30
2015,01,29,08,10,3.30
2015,01,29,08,11,3.30
2015,01,29,08,12,3.40
2015,01,29,08,13,3.40
2015,01,29,08,14,3.40
2015,01,29,08,15,3.40
2015,01,29,08,16,3.40
2015,01,29,08,17,3.40
2015,01,29,08,18,3.40
2015,01,29,08,19,3.50
2015,01,29,08,20,3.40
2015,01,29,08,21,3.40
2015,01,29,08,22,3.40
2015,01,29,08,23,3.40
2015,01,29,08,24,3.40
2015,01,29,08,25,3.40
2015,01,29,08,26,3.50
2015,01,29,08,27,3.50
2015,01,29,08,28,3.50
2015,01,29,08,29,3.50
2015,01,29,08,30,3.50
2015,01,29,08,31,3.50
2015,01,29,08,32,3.50
2015,01,29,08,33,3.50
2015,01,29,08,34,3.50
2015,01,29,08,35,3.60
2015,01,29,08,36,3.60
2015,01,29,08,37,3.60
2015,01,29,08,38,3.60
2015,01,29,08,39,3.60
2015,01,29,08,40,3.60
2015,01,29,08,41,3.60
2015,01,29,08,42,3.60
2015,01,29,08,43,3.60
2015,01,29,08,44,3.60
2015,01,29,08,45,3.70
2015,01,29,08,46,3.70
2015,01,29,08,47,3.70
2015,01,29,08,48,3.70
2015,01,29,08,49,3.70
2015,01,29,08,50,3.70
2015,01,29,08,51,3.70
2015,01,29,08,52,3.70
2015,01,29,08,53,3.70
2015,01,29,08,54,3.70
2015,01,29,08,55,3.80
2015,01,29,08,56,3.80
2015,01,29,08,57,3.80
2015,01,29,08,58,3.80
2015,01,29,08,59,3.80
2015,01,29,09,00,3.80
2015,01,29,09,01,3.80
2015,01,29,09,02,3.80
2015,01,29,09,03,3.80
2015,01,29,09,04,3.80
2015,01,29,09,05,3.90
2015,01,29,09,06,3.90
2015,01,29,09,07,3.90
2015,01,29,09,08,3.90
2015,01,29,09,09,3.90
2015,01,29,09,10,3.90
2015,01,29,09,11,3.90
2015,01,29,09,12,4.00
2015,01,29,09,13,4.00
2015,01,29,09,14,4.00
2015,01,29,09,15,4.00
2015,01,29,09,16,4.10
2015,01,29,09,17,4.10
2015,01,29,09,18,4.10
2015,01,29,09,19,4.10
2015,01,29,09,20,4.20
2015,01,29,09,21,4.20
2015,01,29,09,22,4.20
2015,01,29,09,23,4.20
2015,01,29,09,24,4.20
2015,01,29,09,25,4.30
2015,01,29,09,26,4.30
2015,01,29,09,27,4.30
2015,01,29,09,28,4.30
2015,01,29,09,29,4.30
2015,01,29,09,30,4.30
2015,01,29,09,31,4.30
2015,01,29,09,32,4.30
2015,01,29,09,33,4.40
2015,01,29,09,34,4.40
2015,01,29,09,35,4.40
2015,01,29,09,36,4.50
2015,01,29,09,37,4.50
2015,01,29,09,38,4.60
2015,01,29,09,39,4.60
2015,01,29,09,40,4.60
2015,01,29,09,41,4.60
2015,01,29,09,42,4.70
2015,01,29,09,43,4.70
2015,01,29,09,44,4.70
2015,01,29,09,45,4.70
2015,01,29,09,46,4.80
2015,01,29,09,47,4.80
2015,01,29,09,48,4.80
2015,01,29,09,49,4.80
2015,01,29,09,50,4.80
2015,01,29,09,51,4.80
2015,01,29,09,52,4.80
2015,01,29,09,53,4.80
2015,01,29,09,54,4.80
2015,01,29,09,55,4.80
2015,01,29,09,56,4.80
2015,01,29,09,57,4.80
2015,01,29,09,58,4.80
2015,01,29,09,59,4.80
2015,01,29,10,00,4.80
2015,01,29,10,01,4.80
2015,01,29,10,02,4.90
2015,01,29,10,03,4.90
2015,01,29,10,04,4.90
2015,01,29,10,05,4.90
2015,01,29,10,06,4.90
2015,01,29,10,07,5.00
2015,01,29,10,08,5.00
2015,01,29,10,09,5.00
2015,01,29,10,10,5.10
2015,01,29,10,11,5.10
2015,01,29,10,12,5.10
2015,01,29,10,13,5.20
2015,01,29,10,14,5.20
2015,01,29,10,15,5.20
2015,01,29,10,16,5.20
2015,01,29,10,17,5.20
2015,01,29,10,18,5.30
2015,01,29,10,19,5.30
2015,01,29,10,20,5.30
2015,01,29,10,21,5.30
2015,01,29,10,22,5.30
2015,01,29,10,23,5.40
2015,01,29,10,24,5.40
2015,01,29,10,25,5.50
2015,01,29,10,26,5.50
2015,01,29,10,27,5.60
2015,01,29,10,28,5.70
2015,01,29,10,29,5.70
2015,01,29,10,30,5.70
2015,01,29,10,31,5.80
2015,01,29,10,32,5.80
2015,01,29,10,33,5.90
2015,01,29,10,34,6.00
2015,01,29,10,35,6.00
2015,01,29,10,36,6.10
2015,01,29,10,37,6.10
2015,01,29,10,38,6.10
2015,01,29,10,39,6.20
2015,01,29,10,40,6.30
2015,01,29,10,41,6.30
2015,01,29,10,42,6.40
2015,01,29,10,43,6.40
2015,01,29,10,44,6.50
2015,01,29,10,45,6.50
2015,01,29,10,46,6.60
2015,01,29,10,47,6.70
2015,01,29,10,48,6.70
2015,01,29,10,49,6.80
2015,01,29,10,50,6.80
2015,01,29,10,51,6.80
2015,01,29,10,52,6.90
2015,01,29,10,53,6.90
2015,01,29,10,54,6.90
2015,01,29,10,55,7.00
2015,01,29,10,56,7.00
2015,01,29,10,57,7.10
2015,01,29,10,58,7.10
2015,01,29,10,59,7.20
2015,01,29,11,00,7.20
2015,01,29,11,01,7.20
2015,01,29,11,02,7.30
2015,01,29,11,03,7.40
2015,01,29,11,04,7.40
2015,01,29,11,05,7.40
2015,01,29,11,06,7.50
2015,01,29,11,07,7.50
2015,01,29,11,08,7.60
2015,01,29,11,09,7.60
2015,01,29,11,10,7.60
2015,01,29,11,11,7.70
2015,01,29,11,12,7.70
2015,01,29,11,13,7.80
2015,01,29,11,14,7.80
2015,01,29,11,15,7.80
2015,01,29,11,16,7.80
2015,01,29,11,17,7.90
2015,01,29,11,18,7.90
2015,01,29,11,19,7.80
2015,01,29,11,20,7.80
2015,01,29,11,21,7.90
2015,01,29,11,22,7.90
2015,01,29,11,23,7.90
2015,01,29,11,24,7.90
2015,01,29,11,25,7.90
2015,01,29,11,26,8.00
2015,01,29,11,27,8.10
2015,01,29,11,28,8.10
2015,01,29,11,29,8.20
2015,01,29,11,30,8.20
2015,01,29,11,31,8.30
2015,01,29,11,32,8.30
2015,01,29,11,33,8.30
2015,01,29,11,34,8.30
2015,01,29,11,35,8.40
2015,01,29,11,36,8.50
2015,01,29,11,37,8.60
2015,01,29,11,38,8.60
2015,01,29,11,39,8.70
2015,01,29,11,40,8.80
2015,01,29,11,41,8.80
2015,01,29,11,42,8.80
2015,01,29,11,43,8.80
2015,01,29,11,44,8.80
2015,01,29,11,45,8.80
2015,01,29,11,46,8.90
2015,01,29,11,47,9.00
2015,01,29,11,48,9.00
2015,01,29,11,49,9.10
2015,01,29,11,50,9.10
2015,01,29,11,51,9.10
2015,01,29,11,52,9.10
2015,01,29,11,53,9.00
2015,01,29,11,54,9.00
2015,01,29,11,55,8.90
2015,01,29,11,56,8.90
2015,01,29,11,57,8.90
2015,01,29,11,58,8.90
2015,01,29,11,59,8.80
2015,01,29,12,00,8.80
2015,01,29,12,01,8.90
2015,01,29,12,02,9.00
2015,01,29,12,03,9.10
2015,01,29,12,04,9.20
2015,01,29,12,05,9.30
2015,01,29,12,06,9.40
2015,01,29,12,07,9.40
2015,01,29,12,08,9.40
2015,01,29,12,09,9.50
2015,01,29,12,10,9.50
2015,01,29,12,11,9.50
2015,01,29,12,12,9.50
2015,01,29,12,13,9.50
2015,01,29,12,14,9.50
2015,01,29,12,15,9.50
2015,01,29,12,16,9.50
2015,01,29,12,17,9.60
2015,01,29,12,18,9.70
2015,01,29,12,19,9.80
2015,01,29,12,20,9.80
2015,01,29,12,21,9.80
2015,01,29,12,22,9.80
2015,01,29,12,23,9.70
2015,01,29,12,24,9.80
2015,01,29,12,25,9.80
2015,01,29,12,26,9.80
2015,01,29,12,27,9.80
2015,01,29,12,28,9.70
2015,01,29,12,29,9.70
2015,01,29,12,30,9.80
2015,01,29,12,31,9.80
2015,01,29,12,32,9.80
2015,01,29,12,33,9.80
2015,01,29,12,34,9.80
2015,01,29,12,35,9.90
2015,01,29,12,36,9.90
2015,01,29,12,37,10.00
2015,01,29,12,38,10.10
2015,01,29,12,39,10.10
2015,01,29,12,40,10.10
2015,01,29,12,41,10.20
2015,01,29,12,42,10.20
2015,01,29,12,43,10.20
2015,01,29,12,44,10.20
2015,01,29,12,45,10.30
2015,01,29,12,46,10.40
2015,01,29,12,47,10.50
2015,01,29,12,48,10.60
2015,01,29,12,49,10.60
2015,01,29,12,50,10.60
2015,01,29,12,51,10.60
2015,01,29,12,52,10.60
2015,01,29,12,53,10.60
2015,01,29,12,54,10.60
2015,01,29,12,55,10.70
2015,01,29,12,56,10.70
2015,01,29,12,57,10.70
2015,01,29,12,58,10.70
2015,01,29,12,59,10.80
2015,01,29,13,00,10.80
2015,01,29,13,01,10.80
2015,01,29,13,02,10.90
2015,01,29,13,03,11.00
2015,01,29,13,04,11.10
2015,01,29,13,05,11.20
2015,01,29,13,06,11.20
2015,01,29,13,07,11.30
2015,01,29,13,08,11.40
2015,01,29,13,09,11.40
2015,01,29,13,10,11.40
2015,01,29,13,11,11.50
2015,01,29,13,12,11.60
2015,01,29,13,13,11.70
2015,01,29,13,14,11.70
2015,01,29,13,15,11.80
2015,01,29,13,16,11.80
2015,01,29,13,17,11.90
2015,01,29,13,18,11.90
2015,01,29,13,19,12.00
2015,01,29,13,20,12.10
2015,01,29,13,21,12.10
2015,01,29,13,22,12.00
2015,01,29,13,23,11.90
2015,01,29,13,24,11.90
2015,01,29,13,25,11.90
2015,01,29,13,26,11.90
2015,01,29,13,27,12.00
2015,01,29,13,28,11.90
2015,01,29,13,29,11.80
2015,01,29,13,30,11.80
2015,01,29,13,31,11.80
2015,01,29,13,32,11.80
2015,01,29,13,33,11.80
2015,01,29,13,34,11.80
2015,01,29,13,35,11.80
2015,01,29,13,36,11.80
2015,01,29,13,37,11.80
2015,01,29,13,38,11.80
2015,01,29,13,39,11.90
2015,01,29,13,40,11.80
2015,01,29,13,41,11.80
2015,01,29,13,42,11.90
2015,01,29,13,43,11.90
2015,01,29,13,44,12.00
2015,01,29,13,45,12.10
2015,01,29,13,46,12.10
2015,01,29,13,47,12.10
2015,01,29,13,48,12.20
2015,01,29,13,49,12.20
2015,01,29,13,50,12.20
2015,01,29,13,51,12.10
2015,01,29,13,52,12.00
2015,01,29,13,53,11.90
2015,01,29,13,54,11.90
2015,01,29,13,55,11.90
2015,01,29,13,56,11.90
2015,01,29,13,57,11.80
2015,01,29,13,58,11.70
2015,01,29,13,59,11.60
2015,01,29,14,00,11.60
2015,01,29,14,01,11.50
2015,01,29,14,02,11.50
2015,01,29,14,03,11.50
2015,01,29,14,04,11.50
2015,01,29,14,05,11.50
2015,01,29,14,06,11.60
2015,01,29,14,07,11.60
2015,01,29,14,08,11.60
2015,01,29,14,09,11.60
2015,01,29,14,10,11.60
2015,01,29,14,11,11.70
2015,01,29,14,12,11.70
2015,01,29,14,13,11.70
2015,01,29,14,14,11.80
2015,01,29,14,15,11.90
2015,01,29,14,16,11.90
2015,01,29,14,17,11.80
2015,01,29,14,18,11.80
2015,01,29,14,19,11.80
2015,01,29,14,20,11.80
2015,01,29,14,21,11.80
2015,01,29,14,22,11.90
2015,01,29,14,23,11.90
2015,01,29,14,24,11.90
2015,01,29,14,25,12.00
2015,01,29,14,26,12.10
2015,01,29,14,27,12.20
2015,01,29,14,28,12.20
2015,01,29,14,29,12.20
2015,01,29,14,30,12.30
2015,01,29,14,31,12.30
2015,01,29,14,32,12.30
2015,01,29,14,33,12.30
2015,01,29,14,34,12.30
2015,01,29,14,35,12.30
2015,01,29,14,36,12.40
2015,01,29,14,37,12.50
2015,01,29,14,38,12.50
2015,01,29,14,39,12.40
2015,01,29,14,40,12.30
2015,01,29,14,41,12.30
2015,01,29,14,42,12.30
2015,01,29,14,43,12.30
2015,01,29,14,44,12.40
2015,01,29,14,45,12.40
2015,01,29,14,46,12.40
2015,01,29,14,47,12.30
2015,01,29,14,48,12.30
2015,01,29,14,49,12.30
2015,01,29,14,50,12.30
2015,01,29,14,51,12.30
2015,01,29,14,52,12.20
2015,01,29,14,53,12.30
2015,01,29,14,54,12.30
2015,01,29,14,55,12.40
2015,01,29,14,56,12.50
2015,01,29,14,57,12.60
2015,01,29,14,58,12.50
2015,01,29,14,59,12.50
2015,01,29,15,00,12.40
2015,01,29,15,01,12.30
2015,01,29,15,02,12.40
2015,01,29,15,03,12.40
2015,01,29,15,04,12.30
2015,01,29,15,05,12.40
2015,01,29,15,06,12.40
2015,01,29,15,07,12.40
2015,01,29,15,08,12.40
2015,01,29,15,09,12.50
2015,01,29,15,10,12.50
2015,01,29,15,11,12.50
2015,01,29,15,12,12.50
2015,01,29,15,13,12.50
2015,01,29,15,14,12.60
2015,01,29,15,15,12.60
2015,01,29,15,16,12.60
2015,01,29,15,17,12.70
2015,01,29,15,18,12.70
2015,01,29,15,19,12.70
2015,01,29,15,20,12.70
2015,01,29,15,21,12.80
2015,01,29,15,22,12.80
2015,01,29,15,23,12.80
2015,01,29,15,24,12.90
2015,01,29,15,25,12.90
2015,01,29,15,26,12.90
2015,01,29,15,27,12.90
2015,01,29,15,28,12.90
2015,01,29,15,29,12.80
2015,01,29,15,30,12.70
2015,01,29,15,31,12.60
2015,01,29,15,32,12.50
2015,01,29,15,33,12.50
2015,01,29,15,34,12.40
2015,01,29,15,35,12.30
2015,01,29,15,36,12.20
2015,01,29,15,37,12.20
2015,01,29,15,38,12.10
2015,01,29,15,39,12.10
2015,01,29,15,40,12.10
2015,01,29,15,41,12.10
2015,01,29,15,42,12.10
2015,01,29,15,43,12.10
2015,01,29,15,44,12.10
2015,01,29,15,45,12.10
2015,01,29,15,46,12.10
2015,01,29,15,47,12.10
2015,01,29,15,48,12.00
2015,01,29,15,49,12.00
2015,01,29,15,50,12.00
2015,01,29,15,51,11.90
2015,01,29,15,52,11.90
2015,01,29,15,53,11.90
2015,01,29,15,54,11.90
2015,01,29,15,55,11.90
2015,01,29,15,56,11.80
2015,01,29,15,57,11.80
2015,01,29,15,58,11.80
2015,01,29,15,59,11.80
2015,01,29,16,00,11.80
2015,01,29,16,01,11.80
2015,01,29,16,02,11.80
2015,01,29,16,03,11.80
2015,01,29,16,04,11.80
2015,01,29,16,05,11.80
2015,01,29,16,06,11.70
2015,01,29,16,07,11.70
2015,01,29,16,08,11.70
2015,01,29,16,09,11.60
2015,01,29,16,10,11.60
2015,01,29,16,11,11.60
2015,01,29,16,12,11.60
2015,01,29,16,13,11.60
2015,01,29,16,14,11.50
2015,01,29,16,15,11.50
2015,01,29,16,16,11.40
2015,01,29,16,17,11.40
2015,01,29,16,18,11.30
2015,01,29,16,19,11.30
2015,01,29,16,20,11.30
2015,01,29,16,21,11.20
2015,01,29,16,22,11.20
2015,01,29,16,23,11.10
2015,01,29,16,24,11.10
2015,01,29,16,25,11.00
2015,01,29,16,26,11.00
2015,01,29,16,27,10.90
2015,01,29,16,28,10.90
2015,01,29,16,29,10.90
2015,01,29,16,30,10.80
2015,01,29,16,31,10.80
2015,01,29,16,32,10.80
2015,01,29,16,33,10.70
2015,01,29,16,34,10.70
2015,01,29,16,35,10.70
2015,01,29,16,36,10.60
2015,01,29,16,37,10.60
2015,01,29,16,38,10.60
2015,01,29,16,39,10.50
2015,01,29,16,40,10.40
2015,01,29,16,41,10.40
2015,01,29,16,42,10.40
2015,01,29,16,43,10.40
2015,01,29,16,44,10.30
2015,01,29,16,45,10.30
2015,01,29,16,46,10.30
2015,01,29,16,47,10.30
2015,01,29,16,48,10.20
2015,01,29,16,49,10.20
2015,01,29,16,50,10.20
2015,01,29,16,51,10.10
2015,01,29,16,52,10.10
2015,01,29,16,53,10.10
2015,01,29,16,54,10.00
2015,01,29,16,55,10.00
2015,01,29,16,56,9.90
2015,01,29,16,57,9.90
2015,01,29,16,58,9.90
2015,01,29,16,59,9.80
2015,01,29,17,00,9.80
2015,01,29,17,01,9.80
2015,01,29,17,02,9.80
2015,01,29,17,03,9.70
2015,01,29,17,04,9.70
2015,01,29,17,05,9.70
2015,01,29,17,06,9.70
2015,01,29,17,07,9.60
2015,01,29,17,08,9.60
2015,01,29,17,09,9.50
2015,01,29,17,10,9.50
2015,01,29,17,11,9.40
2015,01,29,17,12,9.40
2015,01,29,17,13,9.30
2015,01,29,17,14,9.30
2015,01,29,17,15,9.20
2015,01,29,17,16,9.10
2015,01,29,17,17,9.10
2015,01,29,17,18,9.00
2015,01,29,17,19,9.00
2015,01,29,17,20,8.90
2015,01,29,17,21,8.90
2015,01,29,17,22,8.80
2015,01,29,17,23,8.80
2015,01,29,17,24,8.70
2015,01,29,17,25,8.70
2015,01,29,17,26,8.60
2015,01,29,17,27,8.60
2015,01,29,17,28,8.50
2015,01,29,17,29,8.50
2015,01,29,17,30,8.40
2015,01,29,17,31,8.30
2015,01,29,17,32,8.30
2015,01,29,17,33,8.20
2015,01,29,17,34,8.20
2015,01,29,17,35,8.10
2015,01,29,17,36,8.00
2015,01,29,17,37,7.90
2015,01,29,17,38,7.90
2015,01,29,17,39,7.80
2015,01,29,17,40,7.80
2015,01,29,17,41,7.80
2015,01,29,17,42,7.70
2015,01,29,17,43,7.70
2015,01,29,17,44,7.70
2015,01,29,17,45,7.60
2015,01,29,17,46,7.60
2015,01,29,17,47,7.60
2015,01,29,17,48,7.50
2015,01,29,17,49,7.50
2015,01,29,17,50,7.40
2015,01,29,17,51,7.40
2015,01,29,17,52,7.30
2015,01,29,17,53,7.30
2015,01,29,17,54,7.20